Regional Weather Roundup
Issued by NWS Lake Charles, LA

Home | Current Version | Previous Version | Text Only | Print | Product List | Glossary On
Versions: 1 2 3 4 5 6 7 8 9 10 11 12 13 14 15 16 17 18 19 20 21 22 23 24 25 26 27 28 29 30 31 32 33 34 35 36 37 38 39 40 41 42 43 44 45 46 47 48 49 50
000
ASUS44 KLCH 250510
RWRLCH
REGIONAL WEATHER ROUNDUP
NATIONAL WEATHER SERVICE LAKE CHARLES LA
1200 AM CDT TUE JUL 25 2017

Note: "fair" indicates few or no clouds below 12,000 feet with no
significant weather and/or obstructions to visibility.


ACROSS SOUTHEAST TEXAS

CITY           SKY/WX    TMP DP  RH WIND       PRES   REMARKS
BEAUMONT       CLOUDY    80  74  81 S7        30.03R
BEAUMONT CITY  FAIR      81  74  79 MISG      30.04R
ORANGE         CLOUDY    83  77  81 S7        30.05R
JASPER           N/A     79  77  92 CALM      30.06R
$$

ACROSS CENTRAL LOUISIANA

CITY           SKY/WX    TMP DP  RH WIND       PRES   REMARKS
LEESVILLE      CLOUDY    78  74  90 SE3       30.04R
FULLERTON      FAIR      77  76  96 CALM      30.03R
ALEXANDRIA INT CLOUDY    77  76  96 S5        30.03R
ESLER FIELD    CLOUDY    77  76  96 CALM      30.05R
DERIDDER       FAIR      78  77  95 CALM      30.06S
OAKDALE        CLOUDY    78  76  93 CALM      30.05R
OPELOUSAS      FAIR      79  77  94 CALM      30.06R
$$

ACROSS SOUTHWEST AND SOUTH CENTRAL LOUISIANA

CITY           SKY/WX    TMP DP  RH WIND       PRES   REMARKS
SULPHUR        CLOUDY    82  75  79 S5        30.05R
LAKE CHARLES   CLOUDY    83  76  79 CALM      30.04R
CHENNAULT INT  CLOUDY    81  76  86 S3        30.05R
CAMERON PHI    CLEAR     84  75  74 S12       30.04R
DEQUINCY       FAIR      79  75  90 CALM      30.05R
JENNINGS       FAIR      80  76  86 SW3       30.05S
LAFAYETTE      CLOUDY    82  77  84 S6        30.05S
NEW IBERIA     CLOUDY    79  75  87 S3        30.07R
ABBEVILLE      FAIR      77  77 100 SE3       30.06S
PATTERSON      PTCLDY    78  76  93 SW5       30.07R
SALT POINT       N/A     84  76  76 SW6       30.05R
$$

SELECTED SITES ACROSS THE REGION

CITY           SKY/WX    TMP DP  RH WIND       PRES   REMARKS
HOUSTON BUSH   MOCLDY    82  74  76 S6        30.02S
HOUSTON HOBBY  PTCLDY    81  74  79 S6        30.03R
GALVESTON      PTCLDY    83  77  82 S10       30.04R
COLLEGE STAT   CLOUDY    83  72  69 S13       30.01R
CONROE         CLOUDY    80  72  76 S7        30.03R
HUNTSVILLE     CLOUDY    82  70  66 S7        30.03R
LUFKIN         CLOUDY    77  76  96 CALM      30.03R
SHREVEPORT     CLEAR     77  75  93 S6        30.02R
MONROE         CLEAR     76  73  91 S3        30.03S
NATCHEZ MS     NOT AVBL
BATON ROUGE    CLOUDY    80  76  87 CALM      30.07R
N.O. INTL ARPT MOCLDY    79  74  84 CALM      30.07S
SLIDELL        CLEAR     76  74  93 CALM      30.07R
$$

MARINE REPORTS

STATION/POSITION TIME  SKY/WX   TEMP    WIND        PRES    VSBY
                                AIR SEA DIR/SP/G
                 (UTC)          (F)     (DEG/KT/KT) (MB)    (MI)
BUOY 30 S HIGH I 0350            85 87  180/ 12/ 16 1016.8
WVE H/P(F/S)=  3/ 6

SEA RIM ST PARK  0500            84     190/ 11/ 12 1017.8R
PORT ARTHUR      0448            82 87  190/  4/  7 1017.4R
SABINE PASS N    0448            84 88  190/  6/  8 1018.7R
TEXAS POINT      NOT AVBL
CALCASIEU PASS   0448            85 85  220/ 15/ 17 1016.5R
LK CHARLES BEACH 0448            84 85              1017.8R
MARSH ISLAND     NOT AVBL
FRESH WATER LOCK 0448            83 85  190/  6/  8 1017.7S
AMERADA PASS     0448            82 86  190/  1/  3 1018.0R
$$



USA.gov is the U.S. government's official web portal to all federal, state and local government web resources and services.